Regional Weather Roundup
Issued by NWS Sterling, VA

Home | Current Version | Previous Version | Text Only | Print | Product List | Glossary On
Versions: 1 2 3 4 5 6 7 8 9 10 11 12 13 14 15 16 17 18 19 20 21 22 23 24 25 26 27 28 29 30 31 32 33 34 35 36 37 38 39 40 41 42 43 44 45 46 47 48 49 50
000
ASUS41 KLWX 280910
RWRLWX

REGIONAL WEATHER ROUNDUP
NATIONAL WEATHER SERVICE BALTIMORE MD/WASHINGTON DC
500 AM EDT MON JUL 28 2014

Note: "FAIR" indicates few or no clouds below 12,000 feet
with no significant weather and/or obstructions to visibility.
 TC=TEMPERATURE CELSIUS

 * =Non NWS site. Station does not report precipitation (e.g. rain,
    snow, etc.), thunder, or fog.

DCZ001-MDZ009-015-VAZ040>042-051-053>054-281000-
WASHINGTON METRO
  /KDAA//-FT BELVOIR

CITY           SKY/WX    TMP DP  RH WIND       PRES   REMARKS
WASHINGTON NAT PTCLDY    74  67  78 SW3       29.59F
DULLES         PTCLDY    66  65  96 S3        29.61R
ANDREWS AFB    CLEAR     74  71  89 SW3       29.59F
QUANTICO       CLEAR     75  71  87 CALM      29.61R
COLLEGE PARK*  CLEAR     72  70  94 CALM      29.58F
LEESBURG*      PTCLDY    68  68 100 SW7       29.61R
MANASSAS*      CLEAR     68  66  94 CALM      29.61R
GAITHERSBURG*  PTCLDY    66  64  94 CALM      29.64S

$$

MDZ006>007-011-014-281000-
BALTIMORE METRO

CITY           SKY/WX    TMP DP  RH WIND       PRES   REMARKS
BWI AIRPORT    MOCLDY    71  69  93 SW3       29.58S
MD SCIENCE CTR   N/A     72  69  90 MISG      29.59S
MARTIN STATE   MOCLDY    70  70 100 CALM      29.58F
ANNAPOLIS      MOCLDY    76  71  85 CALM      29.58S
FORT MEADE*    MOCLDY    68  68 100 S5        29.60F

$$

MDZ012-015-019>023-281000-
MARYLAND EASTERN SHORE

CITY           SKY/WX    TMP DP  RH WIND       PRES   REMARKS
OCEAN CITY     PTCLDY    77  73  87 SW8       29.60S
SALISBURY      NOT AVBL
BAY BRIDGE AP*   N/A     77  73  88 W7        29.58F
CAMBRIDGE*     CLOUDY    79  72  78 W5        29.58F
EASTON*        CLOUDY    78  76  92 W3        29.62S

$$

MDZ017>025-281000-
SOUTHERN MARYLAND

CITY           SKY/WX    TMP DP  RH WIND       PRES   REMARKS
PATUXENT RIVER MOCLDY    76  71  85 SW9       29.60R
ST INIGOES     PTCLDY    78  70  76 SW9       29.60R
LEONARDTOWN*   PTCLDY    75  70  83 SW7       29.62R

$$

MDZ003>005-281000-
NORTH CENTRAL MARYLAND

CITY           SKY/WX    TMP DP  RH WIND       PRES   REMARKS
FREDERICK*     PTCLDY    64  64 100 CALM      29.61S
HAGERSTOWN APT MOCLDY    65  64  97 CALM      29.59S FOG
WESTMINSTER*   FOG       66  64  94 S3        29.59F VSB 3/4

$$

MDZ501>502-281000-
WESTERN MARYLAND

CITY           SKY/WX    TMP DP  RH WIND       PRES   REMARKS
OAKLAND*       CLOUDY    61 N/A N/A SW10G16   29.73R
CUMBERLAND*    CLEAR     66  66 100 S6        29.66S

$$

VAZ025>031-281000-
SHENANDOAH VALLEY

CITY           SKY/WX    TMP DP  RH WIND       PRES   REMARKS
WINCHESTER*    PTCLDY    68  64  88 SW3       29.61S
STAUNTON*      CLEAR     72  61  69 SW5       29.70R

$$

WVZ021-048>050-054>055-281000-
EASTERN WEST VIRGINIA PANHANDLE

CITY           SKY/WX    TMP DP  RH WIND       PRES   REMARKS
MARTINSBURG    PTCLDY    67  63  87 SW7       29.60F
PETERSBURG*    PTCLDY    65  61  87 CALM      29.67S

$$

VAZ036>039-050-281000-
CENTRAL FOOTHILLS

CITY           SKY/WX    TMP DP  RH WIND       PRES   REMARKS
CHARLOTTESVILL PTCLDY    76  62  62 VRB5      29.64R
ORANGE*        CLEAR     72  64  78 SW5       29.64R

$$

VAZ055>057-281000-
NORTH AND CENTRAL PIEDMONT

CITY           SKY/WX    TMP DP  RH WIND       PRES   REMARKS
FREDERICKSBRG* CLEAR     76  72  86 SW6       29.60S
STAFFORD*      CLEAR     74  74 100 CALM      29.65R

$$

NCZ024-NYZ072-PAZ021-071-VAZ022-071-281000-
OTHER REGIONAL OBSERVATIONS

CITY           SKY/WX    TMP DP  RH WIND       PRES   REMARKS
NEW YORK CITY  CLOUDY    69  66  90 W8        29.57F
PHILADELPHIA   MOCLDY    70  66  87 S6        29.56F
PITTSBURGH     MOCLDY    64  61  90 W15       29.67R
ROANOKE        CLEAR     72  63  73 W13       29.76S
RICHMOND       MOCLDY    79  71  76 SW13      29.63S
RALEIGH        CLOUDY    78  60  53 W9        29.75S

$$

ANZ530>537-281000-
MARINE OBSERVATIONS

STATION/POSITION TIME  TEMP    WIND        PRES
                       AIR SEA DIR/SP/G
                 (UTC) (F)     (DEG/KT/KT) (MB)
THOMAS PT LIGHT  0900   77 79  270/  7/  8 1002.1F
BALT KEY BRIDGE  0900          200/  5/  5 1001.2R
COVE POINT       0900   77     280/  9/ 13 1001.9R
LEWISETTA        0900   78 80  250/ 10/ 13 1002.3R
SOLOMONS ISLAND  0900      80                N/A
PINEY POINT      0900          260/ 10/ 14   N/A

$$



USA.gov is the U.S. government's official web portal to all federal, state and local government web resources and services.